Showing default

NEXTSAT-2, 56743

Orbit data source: Space-Track

NEXTSAT-2, 56743 is a payload satellite owned by KAIST (KR) in SSO that was launched on Thu, 25 May 2023 UTC via an NURI launch vehicle from the Naro Space Center, South Korea (NSC). Payload-class satellites include a variety of spacecraft equipped with specific instruments for various scientific and technological missions. These include communications satellites like Starlink; space stations such as the ISS; scientific satellites like the Hubble; Earth observation satellites from companies like Planet Labs, Umbra, and HawkEye 360; GPS; miniature CubeSats for education and research; and military/defense satellites.

Loading next visibility...
Identifier
56743, 2023-072A
Orbit
SSO
Country
Flag of KRKR / SKOR
Related business
Manufacturer
SatRec Initiative
Mission
Operational Civil Ast/Tech
Bus & Motor
NEXTSAT, Unknown motor
Mass
180 kg wet, 180 kg dry
Launch date (UTC)
2023-05-25 (3 years ago)
Launch vehicle
NURI
Launch site
Naro Space Center, South Korea (NSC)
Object type
Payload
Rocket body
Debris
Shape & HBR
Box + 1 Pan, 2.6 m
Radar Cross Section
3.727 m², Medium (>0.1 m² and < 1m²)

Expand to show TLE details & history
Last TLE update: 8 hours ago

TLE from 8 hours ago
0 NEXTSAT-2
1 56743U 23072A   26126.31003190  .00007218  00000-0  27287-3 0  9990
2 56743  97.5275 322.9267 0006414 154.8065 205.3488 15.27267704163200
Epoch: 2026-05-06T07:26Z
TLE epoch observation values (Epoch: 2026-05-06T07:26:26.756Z)
Latitude
0.00002°
Longitude
-12.85715°
Altitude
491.06 km
Speed
7.617 km/s
True Right ascension
21h 31m 42s
True Declination
0° 00' 00"
Sunlit
Object was in daylight at epoch
Visualization orbit readout
Latitude
Unknown
Longitude
Unknown
Altitude
Unknown
Speed
Unknown
Apparent Right ascension
Unknown
Apparent Declination
Unknown
Sunlit
N/A
Visualization observer readout
Local Sidereal Time
23:32:40
Azimuth
Unknown
Elevation
Unknown
Doppler factor
Unknown
Orbital elements
Apogee altitude
485.345 km
Perigee altitude
476.546 km
Semi-major axis
6,859.083 km
Eccentricity
0.00064
Inclination
97.5275°
RAAN
322.9267°
Arg. of periapsis
154.8065°
True anomaly
205.31736°
Mean anomaly
205.3488°
Eccentric anomaly
205.33308°
Mean motion
3.82071 °/min
Orbital period
94.22 mins
BSTAR
0.00027287
Loading maneuver chart data...
Computing Atmospheric mass density...
Loading historical data...
Loading historical data...
Loading historical data...
Loading historical data...
Loading historical data...
Loading historical data...
Loading historical data...

Documentation

Showing up to 5 results
|